Simultaneous Nadir Overpasses (SNOs) Predictions

Prediction of SNOs between AQUA and GOES-15 Satellite Orbit:

Table of predicted SNOs for the next 14.0 days since TLE Epoch: 11/29/2019
Index Date Time (AQUA) AQUA Lat,Lon GOES-15 Lat,Lon Distance(km) Time Diff (sec)
1 11/30/2019 21:51:46 0.82,-124.21 -0.04,-128.34 469.25 80
2 12/01/2019 10:13:02 0.22,-129.38 0.02,-128.37 114.83 80
3 12/03/2019 10:00:51 -0.41,-126.42 0.02,-128.33 217.54 80
4 12/03/2019 22:22:13 -0.72,-131.61 0.00,-128.29 377.93 80
5 12/05/2019 22:10:01 -0.09,-128.65 -0.00,-128.25 45.77 80
6 12/07/2019 21:57:49 0.54,-125.69 -0.00,-128.20 286.02 80
7 12/08/2019 10:19:05 0.55,-130.85 -0.01,-128.22 298.21 80
8 12/10/2019 10:06:53 -0.09,-127.89 -0.01,-128.17 32.98 80
9 12/12/2019 09:54:40 -0.67,-124.92 0.00,-128.11 363.28 80
10 12/12/2019 22:16:04 -0.40,-130.11 0.01,-128.06 232.78 80




NCC Satellite Simultaneous Nadir Overpasses (SNOs) Prediction Service
